OPS 4682 DEB, 19954

Orbit data source: Space-Track

OPS 4682 DEB, 19954 is space debris in LEO originally from a launch on Sat, 03 Apr 1965 UTC launched from the Air Force Western Test Range (AFWTR). Debris objects in space refer to the collection of defunct objects orbiting the Earth. Examples of debris include non-operational satellites, rocket bodies, and fragments generated from explosions, collisions, or faulty payload assembly.

Loading next visibility...
Identifier
19954, 1965-027AZ
Orbit
LEO
Country
Flag of USUS
Related business
Manufacturer
Unknown
Mission
Spacecraft
Bus & Motor
Unknown
Mass
Unknown
Launch date (UTC)
1965-04-03 (61 years ago)
Launch vehicle
Unknown
Launch site
Air Force Western Test Range (AFWTR)
Object type
Payload
Rocket body
Debris
Shape & HBR
Unknown shape, 0.1 m
Radar Cross Section
Small (<0.1 m²)

Expand to show TLE details & history
Last TLE update: 12 hours ago

TLE from 12 hours ago
0 OPS 4682 DEB
1 19954U 65027AZ  25293.33616041 -.00000180  00000-0 -57795-3 0  9990
2 19954  90.3820  70.3316 0030430  67.5898 321.2760 13.04943713744264
Epoch: 2025-10-20T08:04Z
TLE epoch observation values (Epoch: 2025-10-20T08:04:04.259Z)
Latitude
28.68759°
Longitude
-79.93406°
Altitude
1,228.266 km
Speed
7.251 km/s
True Right ascension
04h 40m 29s
True Declination
28° 33' 07"
Sunlit
Object was in full shadow at epoch
Visualization orbit readout
Latitude
Unknown
Longitude
Unknown
Altitude
Unknown
Speed
Unknown
Apparent Right ascension
Unknown
Apparent Declination
Unknown
Sunlit
N/A
Visualization observer readout
Local Sidereal Time
14:44:58
Azimuth
Unknown
Elevation
Unknown
Doppler factor
Unknown
Orbital elements
Apogee altitude
1,263.08 km
Perigee altitude
1,216.716 km
Semi-major axis
7,618.035 km
Eccentricity
0.00304
Inclination
90.382°
RAAN
70.3316°
Arg. of periapsis
67.5898°
True anomaly
321.05721°
Mean anomaly
321.276°
Eccentric anomaly
321.16667°
Mean motion
3.26421 °/min
Orbital period
110.29 mins
BSTAR
-0.00057795
Loading maneuver chart data...
Computing Atmospheric mass density...
Loading historical data...
Loading historical data...
Loading historical data...
Loading historical data...
Loading historical data...
Loading historical data...
Loading historical data...

Documentation

Showing up to 5 results
|